FW3224 Weather Reports


time (UTC)temp
C
wind
direction
speed
KPH
gust
KPH
rain 1hr
cm
rain 24hr
cm
rain mn
cm
humidity
%
barometer
mb
20260905173149 20 252 8.0 29.0 0.00 0.00 0.00 49 1010.8
20260905172545 20 204 11.3 27.4 0.00 0.00 0.00 50 1010.7
20260905172045 20 261 11.3 37.0 0.00 0.00 0.00 49 1010.5
20260905171545 20 245 16.1 41.8 0.00 0.00 0.00 49 1010.5
20260905171042 20 242 16.1 41.8 0.00 0.00 0.00 51 1010.5
20260905170541 20 243 8.0 17.7 0.00 0.00 0.00 55 1010.4
20260905170044 21 236 8.0 27.4 0.00 0.00 0.00 55 1010.4
20260905165539 21 234 12.9 27.4 0.00 0.00 0.00 54 1010.3
20260905165039 21 227 8.0 25.7 0.00 0.00 0.00 55 1010.2
20260905164537 21 189 9.7 25.7 0.00 0.00 0.00 56 1010.1
20260905164037 21 195 8.0 24.1 0.00 0.00 0.00 56 1010.1
20260905163538 21 187 4.8 17.7 0.00 0.00 0.00 57 1010.0
20260905163035 21 188 4.8 17.7 0.00 0.00 0.00 56 1010.0
20260905162534 21 245 8.0 22.5 0.00 0.00 0.00 56 1009.9
20260905162033 21 220 6.4 22.5 0.00 0.00 0.00 57 1009.9
20260905161534 21 236 8.0 20.9 0.00 0.00 0.00 56 1009.9
20260905161031 21 207 9.7 20.9 0.00 0.00 0.00 56 1009.8
20260905160530 21 227 9.7 17.7 0.00 0.00 0.00 57 1009.8
20260905160028 21 224 8.0 17.7 0.00 0.00 0.00 57 1009.6
20260905155530 21 251 8.0 19.3 0.00 0.00 0.00 56 1009.5
20260905155026 21 267 9.7 19.3 0.00 0.00 0.00 56 1009.4
20260905154526 21 227 6.4 20.9 0.00 0.00 0.00 56 1009.4
20260905154032 21 238 8.0 20.9 0.00 0.00 0.00 56 1009.4
20260905153525 21 207 6.4 19.3 0.00 0.00 0.00 56 1009.3
20260905153025 21 279 9.7 19.3 0.00 0.00 0.00 56 1009.2
20260905152525 21 288 6.4 19.3 0.00 0.00 0.00 56 1009.2
20260905152022 21 238 8.0 19.3 0.00 0.00 0.00 56 1009.2
20260905151522 21 277 9.7 17.7 0.00 0.00 0.00 56 1009.2
20260905151020 21 288 8.0 14.5 0.00 0.00 0.00 57 1009.3
20260905150523 21 244 8.0 22.5 0.00 0.00 0.00 56 1009.2
20260905150020 21 257 9.7 22.5 0.00 0.00 0.00 56 1009.3
20260905145519 21 281 12.9 24.1 0.00 0.00 0.00 56 1009.2
20260905145019 21 266 6.4 22.5 0.00 0.00 0.00 57 1009.2
20260905144523 21 237 8.0 22.5 0.00 0.00 0.00 57 1009.2
20260905144017 21 254 6.4 11.3 0.00 0.00 0.00 56 1009.1
20260905143516 22 231 3.2 14.5 0.00 0.00 0.00 55 1009.2
20260905143018 22 246 6.4 16.1 0.00 0.00 0.00 55 1009.1
20260905142515 22 241 8.0 16.1 0.00 0.00 0.00 55 1009.1
20260905142014 22 298 6.4 16.1 0.00 0.00 0.00 55 1008.9
20260905141512 22 271 4.8 12.9 0.00 0.00 0.00 56 1008.9
20260905141013 22 275 6.4 20.9 0.00 0.00 0.00 56 1008.7
20260905140513 21 290 11.3 20.9 0.00 0.00 0.00 56 1008.7
20260905140009 21 285 8.0 16.1 0.00 0.00 0.00 57 1008.6
20260905135509 21 279 8.0 16.1 0.00 0.00 0.00 58 1008.6
20260905135008 21 288 8.0 16.1 0.00 0.00 0.00 59 1008.5
20260905134508 21 281 6.4 16.1 0.00 0.00 0.00 59 1008.5
20260905134008 21 271 3.2 12.9 0.00 0.00 0.00 59 1008.4
20260905133508 21 297 4.8 12.9 0.00 0.00 0.00 58 1008.4
20260905133008 22 277 4.8 14.5 0.00 0.00 0.00 58 1008.5
20260905132508 22 281 8.0 16.1 0.00 0.00 0.00 57 1008.3
20260905132008 22 281 4.8 16.1 0.00 0.00 0.00 57 1008.3
20260905131508 22 259 4.8 20.9 0.00 0.00 0.00 57 1008.6
20260905131010 22 293 9.7 20.9 0.00 0.00 0.00 57 1008.6
20260905130507 22 275 4.8 16.1 0.00 0.00 0.00 57 1008.6
20260905130007 22 311 4.8 12.9 0.00 0.00 0.00 57 1008.5
20260905125507 22 287 3.2 20.9 0.00 0.00 0.00 57 1008.4
20260905125007 22 300 9.7 20.9 0.00 0.00 0.00 57 1008.4
20260905124506 22 289 9.7 19.3 0.00 0.00 0.00 57 1008.4
20260905124007 22 280 11.3 24.1 0.00 0.00 0.00 57 1008.4
20260905123507 22 238 9.7 22.5 0.00 0.00 0.00 57 1008.4
20260905123006 22 270 11.3 24.1 0.00 0.00 0.00 58 1008.4
20260905122507 22 257 9.7 24.1 0.00 0.00 0.00 58 1008.4
20260905122005 22 305 9.7 29.0 0.00 0.00 0.00 57 1008.4
20260905121504 22 229 12.9 24.1 0.00 0.00 0.00 57 1008.5
20260905121004 22 226 12.9 24.1 0.00 0.00 0.00 57 1008.4
20260905120508 22 292 12.9 24.1 0.00 0.00 0.00 58 1008.4
20260905120004 22 282 11.3 24.1 0.00 0.00 0.00 57 1008.4
20260905115504 22 257 12.9 25.7 0.00 0.00 0.00 57 1008.4
20260905115007 22 284 9.7 25.7 0.00 0.00 0.00 57 1008.3
20260905114504 22 282 9.7 30.6 0.00 0.00 0.00 57 1008.4
20260905114004 22 275 14.5 30.6 0.00 0.00 0.00 57 1008.3
20260905113504 22 257 12.9 29.0 0.00 0.00 0.00 56 1008.4
20260905113004 22 257 12.9 25.7 0.00 0.00 0.00 56 1008.4
20260905112503 22 264 14.5 32.2 0.00 0.00 0.00 56 1008.3
20260905112004 23 252 14.5 33.8 0.00 0.00 0.00 55 1008.6
20260905111505 23 281 20.9 33.8 0.00 0.00 0.00 54 1008.6
20260905111003 23 284 16.1 30.6 0.00 0.00 0.00 54 1008.6
20260905110502 23 288 16.1 32.2 0.00 0.00 0.00 53 1008.8
20260905110002 23 274 19.3 37.0 0.00 0.00 0.00 52 1008.7
20260905105502 23 295 19.3 37.0 0.00 0.00 0.00 52 1008.7
20260905105002 23 240 16.1 41.8 0.00 0.00 0.00 52 1008.7
20260905104501 23 280 19.3 41.8 0.00 0.00 0.00 52 1008.8
20260905104004 23 279 16.1 35.4 0.00 0.00 0.00 53 1008.8
20260905103505 23 274 16.1 41.8 0.00 0.00 0.00 53 1008.9
20260905103006 23 264 16.1 41.8 0.00 0.00 0.00 53 1008.8
20260905102501 23 263 17.7 32.2 0.00 0.00 0.00 52 1008.8
20260905102001 23 249 12.9 32.2 0.00 0.00 0.00 53 1008.9
20260905101607 23 254 14.5 35.4 0.00 0.00 0.00 53 1009.0
20260905101502 23 236 16.1 35.4 0.00 0.00 0.00 52 1009.0
20260905101100 23 270 22.5 35.4 0.00 0.00 0.00 53 1009.1
20260905100600 23 262 17.7 45.1 0.00 0.00 0.00 54 1009.6
20260905100201 23 287 25.7 45.1 0.00 0.00 0.00 53 1010.1
20260905095559 23 248 16.1 40.2 0.00 0.00 0.00 52 1010.2
20260905095059 23 289 17.7 40.2 0.00 0.00 0.00 52 1010.2
20260905094559 23 238 20.9 40.2 0.00 0.00 0.00 54 1010.5
20260905094058 23 289 11.3 27.4 0.00 0.00 0.00 56 1010.6
20260905093558 23 263 14.5 27.4 0.00 0.00 0.00 56 1010.6
20260905093059 23 285 14.5 27.4 0.00 0.00 0.00 56 1010.8
20260905092601 23 237 12.9 29.0 0.00 0.00 0.00 57 1010.9
20260905092058 23 293 16.1 29.0 0.00 0.00 0.00 57 1010.7
20260905091606 23 227 14.5 27.4 0.00 0.00 0.00 58 1010.8
20260905091100 23 267 11.3 38.6 0.00 0.00 0.00 58 1010.5
20260905090601 23 287 12.9 41.8 0.00 0.00 0.00 58 1010.4
20260905090057 23 256 16.1 41.8 0.00 0.00 0.00 57 1010.6
20260905085557 23 252 17.7 30.6 0.00 0.00 0.00 56 1010.4
20260905085057 23 287 12.9 30.6 0.00 0.00 0.00 57 1010.5
20260905084600 23 248 14.5 29.0 0.00 0.00 0.00 56 1010.6
20260905084057 23 259 11.3 33.8 0.00 0.00 0.00 58 1010.5
20260905083557 23 276 16.1 33.8 0.00 0.00 0.00 56 1010.5
20260905083109 23 285 6.4 20.9 0.00 0.00 0.00 54 1010.3
20260905082556 24 249 8.0 19.3 0.00 0.00 0.00 53 1010.0
20260905082056 24 159 8.0 22.5 0.00 0.00 0.00 53 1009.8
20260905081555 25 225 4.8 22.5 0.00 0.00 0.00 51 1009.7
20260905081055 25 200 6.4 22.5 0.00 0.00 0.00 50 1009.9
20260905080555 25 85 8.0 32.2 0.00 0.00 0.00 50 1009.8
20260905080055 25 272 11.3 32.2 0.00 0.00 0.00 49 1009.7
20260905075556 25 186 12.9 32.2 0.00 0.00 0.00 49 1009.7
20260905075054 25 150 16.1 29.0 0.00 0.00 0.00 47 1009.6
20260905074555 26 236 9.7 37.0 0.00 0.00 0.00 45 1009.4
20260905074057 27 165 12.9 33.8 0.00 0.00 0.00 41 1009.3
20260905073554 28 224 6.4 20.9 0.00 0.00 0.00 34 1008.4
20260905073057 28 275 11.3 20.9 0.00 0.00 0.00 33 1007.7
20260905072558 28 274 9.7 24.1 0.00 0.00 0.00 33 1007.6
20260905072057 28 264 8.0 29.0 0.00 0.00 0.00 33 1007.5
20260905071555 29 246 12.9 29.0 0.00 0.00 0.00 33 1007.4
20260905071053 29 275 12.9 35.4 0.00 0.00 0.00 32 1007.3
20260905070553 29 268 17.7 35.4 0.00 0.00 0.00 32 1007.3
20260905070054 29 286 14.5 25.7 0.00 0.00 0.00 32 1007.2
20260905065552 29 252 11.3 25.7 0.00 0.00 0.00 32 1007.1
20260905065052 30 300 8.0 30.6 0.00 0.00 0.00 32 1007.0
20260905064611 30 262 12.9 37.0 0.00 0.00 0.00 32 1007.0
20260905064052 30 249 20.9 43.5 0.00 0.00 0.00 31 1006.8
20260905063551 30 261 17.7 43.5 0.00 0.00 0.00 31 1006.6
20260905063054 30 302 17.7 48.3 0.00 0.00 0.00 31 1006.6
20260905062551 30 247 24.1 48.3 0.00 0.00 0.00 31 1006.6
20260905062051 30 242 22.5 48.3 0.00 0.00 0.00 31 1006.6
20260905061551 30 284 17.7 48.3 0.00 0.00 0.00 31 1006.7
20260905061050 30 263 27.4 48.3 0.00 0.00 0.00 31 1006.6
20260905060553 30 250 19.3 38.6 0.00 0.00 0.00 31 1006.6
20260905060051 30 273 17.7 38.6 0.00 0.00 0.00 31 1006.7
20260905055551 30 220 16.1 29.0 0.00 0.00 0.00 31 1006.5
20260905055050 30 268 17.7 41.8 0.00 0.00 0.00 31 1006.4
20260905054644 30 217 20.9 41.8 0.00 0.00 0.00 31 1006.5
20260905054050 30 261 19.3 40.2 0.00 0.00 0.00 30 1006.5
20260905053550 30 297 19.3 41.8 0.00 0.00 0.00 30 1006.5
20260905053050 30 257 22.5 41.8 0.00 0.00 0.00 30 1006.5
20260905052549 30 287 19.3 37.0 0.00 0.00 0.00 30 1006.6
20260905052049 30 241 17.7 37.0 0.00 0.00 0.00 30 1006.6
20260905051548 30 309 17.7 30.6 0.00 0.00 0.00 30 1006.7
20260905051047 30 272 14.5 45.1 0.00 0.00 0.00 30 1006.7
20260905050547 30 242 16.1 45.1 0.00 0.00 0.00 30 1006.8
20260905050047 30 265 16.1 41.8 0.00 0.00 0.00 30 1006.9
20260905045546 30 253 19.3 41.8 0.00 0.00 0.00 30 1006.8
20260905045046 30 241 17.7 41.8 0.00 0.00 0.00 30 1007.0
20260905044602 30 259 17.7 41.8 0.00 0.00 0.00 30 1006.9
20260905044045 30 260 24.1 41.8 0.00 0.00 0.00 29 1007.0
20260905043545 30 234 20.9 40.2 0.00 0.00 0.00 30 1007.1
20260905043044 31 250 12.9 38.6 0.00 0.00 0.00 30 1007.1
20260905042543 30 256 22.5 38.6 0.00 0.00 0.00 29 1007.3
20260905042043 31 272 17.7 40.2 0.00 0.00 0.00 30 1007.4
20260905041542 30 260 16.1 40.2 0.00 0.00 0.00 30 1007.5
20260905041041 31 265 17.7 35.4 0.00 0.00 0.00 30 1007.5
20260905040542 31 247 12.9 32.2 0.00 0.00 0.00 31 1007.7
20260905040040 31 227 12.9 32.2 0.00 0.00 0.00 31 1007.8
20260905035538 30 238 8.0 29.0 0.00 0.00 0.00 33 1007.8
20260905035037 30 248 16.1 37.0 0.00 0.00 0.00 33 1007.9
20260905034536 30 292 17.7 37.0 0.00 0.00 0.00 34 1008.2
20260905034035 29 236 12.9 22.5 0.00 0.00 0.00 36 1008.2
20260905033533 29 284 6.4 20.9 0.00 0.00 0.00 37 1008.4
20260905033038 28 275 11.3 22.5 0.00 0.00 0.00 36 1008.5
20260905032531 28 248 8.0 22.5 0.00 0.00 0.00 37 1008.8
20260905032029 28 257 6.4 19.3 0.00 0.00 0.00 39 1008.9
20260905031530 28 338 3.2 16.1 0.00 0.00 0.00 40 1009.0
20260905031028 28 290 4.8 16.1 0.00 0.00 0.00 39 1009.2
20260905030526 28 257 3.2 17.7 0.00 0.00 0.00 38 1009.3
20260905030032 28 331 6.4 17.7 0.00 0.00 0.00 38 1009.5
20260905025523 28 355 6.4 19.3 0.00 0.00 0.00 38 1009.7
20260905025022 28 267 8.0 19.3 0.00 0.00 0.00 37 1009.9
20260905024520 28 351 3.2 17.7 0.00 0.00 0.00 38 1010.1
20260905024019 27 299 6.4 19.3 0.00 0.00 0.00 38 1010.3
20260905023518 27 321 8.0 25.7 0.00 0.00 0.00 38 1010.4
20260905023017 27 292 9.7 25.7 0.00 0.00 0.00 37 1010.5
20260905022515 27 304 6.4 17.7 0.00 0.00 0.00 37 1010.7
20260905022015 27 311 9.7 16.1 0.00 0.00 0.00 37 1010.9
20260905021512 27 300 8.0 22.5 0.00 0.00 0.00 37 1011.0
20260905021011 27 308 9.7 22.5 0.00 0.00 0.00 37 1011.2
20260905020510 27 317 11.3 24.1 0.00 0.00 0.00 37 1011.3
20260905020010 27 277 12.9 29.0 0.00 0.00 0.00 37 1011.3
20260905015511 27 280 9.7 20.9 0.00 0.00 0.00 36 1011.5
20260905015008 27 262 8.0 20.9 0.00 0.00 0.00 37 1011.5
20260905014506 27 323 8.0 20.9 0.00 0.00 0.00 37 1011.7
20260905014006 27 263 6.4 20.9 0.00 0.00 0.00 38 1011.8
20260905013504 26 288 8.0 19.3 0.00 0.00 0.00 38 1011.8
20260905013004 26 304 8.0 20.9 0.00 0.00 0.00 38 1012.0
20260905012604 26 261 9.7 20.9 0.00 0.00 0.00 38 1012.0
20260905012100 26 252 9.7 20.9 0.00 0.00 0.00 38 1012.2
20260905011558 26 275 8.0 27.4 0.00 0.00 0.00 38 1012.4
20260905011100 26 305 9.7 27.4 0.00 0.00 0.00 37 1012.5
20260905010555 26 213 6.4 14.5 0.00 0.00 0.00 39 1012.7
20260905005552 25 297 11.3 22.5 0.00 0.00 0.00 40 1013.1
20260905005052 25 267 9.7 19.3 0.00 0.00 0.00 40 1013.1
20260905004550 25 273 9.7 17.7 0.00 0.00 0.00 40 1013.3
20260905004048 24 238 9.7 20.9 0.00 0.00 0.00 41 1013.5
20260905003547 24 258 6.4 22.5 0.00 0.00 0.00 41 1013.7
20260905003046 24 297 9.7 16.1 0.00 0.00 0.00 41 1013.8
20260905002545 24 279 8.0 16.1 0.00 0.00 0.00 42 1013.9
20260905002043 23 274 6.4 20.9 0.00 0.00 0.00 42 1014.0
20260905001542 23 264 8.0 17.7 0.00 0.00 0.00 41 1014.0
20260905001041 23 259 8.0 17.7 0.00 0.00 0.00 41 1014.1
20260905000542 23 303 6.4 20.9 0.00 0.00 0.00 41 1014.3
20260905000037 23 232 8.0 20.9 0.00 0.00 0.00 40 1014.4
20260904235535 23 250 4.8 16.1 0.00 0.00 0.00 42 1014.4
20260904235034 23 264 8.0 16.1 0.00 0.00 0.00 43 1014.5
20260904234533 23 275 6.4 20.9 0.00 0.00 0.00 43 1014.7
20260904234036 22 255 9.7 20.9 0.00 0.00 0.00 43 1014.8
20260904233530 22 227 11.3 20.9 0.00 0.00 0.00 44 1014.9
20260904233029 22 284 4.8 12.9 0.00 0.00 0.00 48 1014.9
20260904232528 22 267 6.4 12.9 0.00 0.00 0.00 47 1015.0
20260904232025 21 273 4.8 12.9 0.00 0.00 0.00 49 1015.1
20260904231524 21 319 4.8 14.5 0.00 0.00 0.00 51 1015.2
20260904231023 21 257 6.4 14.5 0.00 0.00 0.00 52 1015.3
20260904230524 21 291 4.8 14.5 0.00 0.00 0.00 52 1015.4
20260904230020 21 238 6.4 14.5 0.00 0.00 0.00 51 1015.5
20260904225521 21 302 6.4 14.5 0.00 0.00 0.00 51 1015.5
20260904225019 21 290 3.2 14.5 0.00 0.00 0.00 51 1015.6
20260904224520 20 281 4.8 14.5 0.00 0.00 0.00 50 1015.6
20260904224018 20 304 6.4 14.5 0.00 0.00 0.00 51 1015.7
20260904223516 20 279 4.8 11.3 0.00 0.00 0.00 51 1015.7
20260904223016 20 275 6.4 11.3 0.00 0.00 0.00 51 1015.7
20260904222515 20 297 3.2 12.9 0.00 0.00 0.00 52 1015.7
20260904222015 20 246 4.8 12.9 0.00 0.00 0.00 52 1015.7
20260904221514 20 276 0.0 9.7 0.00 0.00 0.00 53 1015.7
20260904221013 20 319 1.6 9.7 0.00 0.00 0.00 54 1015.7
20260904220512 20 292 3.2 8.0 0.00 0.00 0.00 54 1015.7
20260904220011 20 296 3.2 9.7 0.00 0.00 0.00 54 1015.9
20260904215510 19 271 3.2 9.7 0.00 0.00 0.00 54 1015.9
20260904215010 19 282 3.2 11.3 0.00 0.00 0.00 54 1016.0
20260904214510 19 263 4.8 12.9 0.00 0.00 0.00 54 1016.0
20260904214010 19 298 6.4 17.7 0.00 0.00 0.00 52 1016.0
20260904213510 19 288 6.4 17.7 0.00 0.00 0.00 52 1016.0
20260904213009 19 279 6.4 16.1 0.00 0.00 0.00 52 1015.9
20260904212509 19 307 4.8 17.7 0.00 0.00 0.00 52 1015.7
20260904212007 19 290 4.8 17.7 0.00 0.00 0.00 52 1015.7
20260904211508 19 286 4.8 14.5 0.00 0.00 0.00 52 1015.8
20260904211008 18 269 6.4 17.7 0.00 0.00 0.00 52 1015.8
20260904210505 18 251 6.4 16.1 0.00 0.00 0.00 53 1015.7
20260904210010 18 265 6.4 16.1 0.00 0.00 0.00 53 1015.7
20260904205504 18 275 8.0 16.1 0.00 0.00 0.00 53 1015.6
20260904205002 18 232 8.0 16.1 0.00 0.00 0.00 53 1015.7
20260904204501 18 279 9.7 17.7 0.00 0.00 0.00 53 1015.7
20260904204100 18 238 6.4 19.3 0.00 0.00 0.00 54 1015.6
20260904203559 18 296 9.7 19.3 0.00 0.00 0.00 54 1015.5
20260904203100 18 255 8.0 14.5 0.00 0.00 0.00 56 1015.6
20260904202558 18 297 4.8 16.1 0.00 0.00 0.00 56 1015.5
20260904202057 18 280 8.0 17.7 0.00 0.00 0.00 56 1015.5
20260904201558 18 263 9.7 17.7 0.00 0.00 0.00 56 1015.6
20260904201055 17 250 9.7 16.1 0.00 0.00 0.00 56 1015.6
20260904200554 17 280 8.0 16.1 0.00 0.00 0.00 57 1015.7
20260904200110 17 259 9.7 17.7 0.00 0.00 0.00 58 1015.6
20260904195555 17 274 8.0 17.7 0.00 0.00 0.00 60 1015.8
20260904195049 16 261 8.0 14.5 0.00 0.00 0.00 61 1015.8
20260904194551 16 277 6.4 14.5 0.00 0.00 0.00 63 1015.9
20260904194048 16 255 6.4 12.9 0.00 0.00 0.00 64 1015.9
20260904193548 16 273 6.4 12.9 0.00 0.00 0.00 65 1016.0
20260904193048 15 281 3.2 12.9 0.00 0.00 0.00 66 1016.0
20260904192548 15 289 4.8 12.9 0.00 0.00 0.00 66 1016.0
20260904192047 15 294 3.2 9.7 0.00 0.00 0.00 65 1016.0
20260904191547 16 287 4.8 9.7 0.00 0.00 0.00 65 1016.0
20260904191047 15 285 3.2 8.0 0.00 0.00 0.00 66 1016.1
20260904190546 15 289 3.2 6.4 0.00 0.00 0.00 66 1016.1
20260904190050 15 268 3.2 6.4 0.00 0.00 0.00 66 1016.0
20260904185546 15 279 3.2 6.4 0.00 0.00 0.00 66 1015.9
20260904185046 15 275 3.2 11.3 0.00 0.00 0.00 66 1015.8
20260904184545 15 284 3.2 12.9 0.00 0.00 0.00 66 1015.8
20260904184045 15 279 4.8 16.1 0.00 0.00 0.00 66 1015.8
20260904183547 15 281 4.8 16.1 0.00 0.00 0.00 66 1015.8
20260904183044 15 286 3.2 14.5 0.00 0.00 0.00 66 1015.7
20260904182548 15 269 6.4 16.1 0.00 0.00 0.00 66 1015.7
20260904182043 15 326 8.0 16.1 0.00 0.00 0.00 66 1015.7
20260904181547 15 315 8.0 16.1 0.00 0.00 0.00 66 1015.7
20260904181043 15 254 8.0 16.1 0.00 0.00 0.00 66 1015.6
20260904180541 15 290 9.7 16.1 0.00 0.00 0.00 66 1015.7
20260904180047 15 304 4.8 14.5 0.00 0.00 0.00 67 1015.8
20260904175540 15 311 4.8 12.9 0.00 0.00 0.00 67 1015.8
20260904175040 15 267 4.8 12.9 0.00 0.00 0.00 67 1015.8
20260904174541 15 262 4.8 12.9 0.00 0.00 0.00 67 1015.8
20260904174040 15 267 4.8 14.5 0.00 0.00 0.00 67 1015.9
20260904173539 15 284 6.4 14.5 0.00 0.00 0.00 67 1015.8